Meteo Giornale » Osservazioni meteo Stati Uniti (USA) » Boston Logan

ore: 15:54 - Osservazioni Meteo Boston Logan
Lat. 42° 21' N Lon. 71° 0' W Alt. 6 metri s.l.m.

coperto_pioggia

18 °C

Pioggia Foschia

Temp. 24 Ore

18 °C

23 °C

Sud

9.3 Km/h

Dew point 17 °C

Umidità 93 %

Visibilità  10 Km

Il sole sorge alle ore 06:09

Il sole tramonta alle ore 19:18

Data e Ora Cielo e Fenomeni T °C DP °C Um. % Pres. hPa Vis. km Vento km/h
Oggi h: 15:54 coperto_pioggia Pioggia Foschia 18 17 93 1017 10 S 9.3
Oggi h: 14:54 coperto_pioggia Pioggia Foschia 18 17 93 1017 6 E 20.3
Oggi h: 14:15 coperto_pioggia Pioggia Foschia 19 18 93 1017 5 E 22.2
Oggi h: 14:01 coperto_pioggia Pioggia Foschia 19 18 93 1017 3 E 18.5
Oggi h: 13:54 coperto_pioggia Pioggia Foschia 19 18 93 1017 3 E 18.5
Oggi h: 12:54 coperto_pioggia Pioggia 20 18 88 1017 10 E/NE 14.8
Oggi h: 11:54 coperto Coperto 21 18 82 1017 10 E 14.8
Oggi h: 11:30 molto_nuvoloso Molto Nuvoloso 21 19 88 1017 10 E 16.7
Oggi h: 10:54 coperto Coperto 19 18 93 1018 10 E 13
Oggi h: 10:13 coperto Coperto 19 18 93 1018 10 E 13
Oggi h: 10:01 coperto_pioggia Pioggia 19 18 93 1018 10 E 9.3
Oggi h: 09:54 coperto_pioggia Pioggia 19 18 93 1018 14 E/NE 7.4
Oggi h: 08:54 coperto_pioggia Pioggia Foschia 19 18 93 1018 8 N/NE 13
Oggi h: 07:54 coperto Coperto 21 17 77 1018 10 N 7.4
Oggi h: 06:54 coperto_pioggia Pioggia 19 17 88 1017 10 O 9.3
Oggi h: 05:54 coperto Coperto 19 17 88 1017 10 S 7.4
Oggi h: 04:54 coperto Coperto 21 16 73 1017 10 S/SO 9.3
Oggi h: 03:54 coperto Coperto 20 16 77 1017 10 SO 13
Oggi h: 02:54 coperto Coperto 20 16 77 1017 10 S/SO 11.1
Oggi h: 01:54 coperto Coperto 21 16 73 1018 10 SO 13
Oggi h: 00:54 coperto Coperto 21 16 73 1018 10 SO 14.8
Ieri h: 23:54 coperto Coperto 21 16 73 1018 10 SO 14.8
Ieri h: 22:54 molto_nuvoloso Molto Nuvoloso 20 17 82 1018 10 S/SO 14.8
Ieri h: 21:54 nuvoloso Nuvoloso 21 16 73 1018 10 S 20.3
Ieri h: 20:54 molto_nuvoloso Molto Nuvoloso 21 16 73 1018 10 S 20.3
Ieri h: 19:54 molto_nuvoloso Molto Nuvoloso 22 16 68 1018 10 S 16.7
Ieri h: 18:54 molto_nuvoloso Molto Nuvoloso 22 15 64 1018 10 S/SE 16.7
Ieri h: 17:54 molto_nuvoloso Molto Nuvoloso 22 16 68 1018 10 SE 14.8
Ieri h: 16:54 molto_nuvoloso Molto Nuvoloso 23 15 60 1018 10 E/SE 20.3